Location: Cannifist
(18.2333°N, 63.0167°W)
Time: 04:37:10
(UTC+00:00)

Cosmos 2034 Rocket - Pass Details

Date: 27 February 2020
Orbit: 959 x 1000 km, 82.9° (Epoch: 04 April)

Event Time Altitude Azimuth Distance (km) Brightness Sun altitude
Rises 23:31:55 0° 192° (SSW) 3,648 7.2 -18.4°
Reaches altitude 10° 23:34:27 10° 195° (SSW) 2,698 6.5 -19.0°
Maximum altitude 23:40:32 61° 275° (W) 1,079 4.5 -20.5°
Drops below altitude 10° 23:46:35 10° 355° (N) 2,688 6.3 -21.9°
Sets 23:49:07 0° 359° (N) 3,634 7.0 -22.5°
